WZZ11U LEMD-EPGD

Flight info

Callsign WZZ11U
Flight time N/A
Altitude 36000
Route PINAR N870 SEGRE N871 TOPTU DCT TOU DCT GAI DCT MEN DCT NINUN DCT LATAM DCT ETREK DCT LTP/N0433F340 DCT SOPLO DCT OMASI DCT KINNI/N0438F360 DCT SOSAL DCT KORED DCT BERSU DCT DITON/N0439F370 DCT LOKTA DCT TEDGO DCT TIKNI N746 ROBEL DCT TOPDI DCT ALUKA DCT LUXAL L730 KOSEX
Aircraft A21N/M-SDE2E3FGHIRWXY/LB1

Departure

Time 2026-05-06 16:23
Airport Adolfo Suárez Madrid–Barajas Airport (LEMD)

Arrival

Time N/A
Airport Gdańsk Lech Wałęsa Airport (EPGD)
Time Latitude Longitude Altitude Speed Heading
2026-05-06 15:46 40.47037 -3.56881 1983 ft 0 kts 232°
2026-05-06 16:01 40.47044 -3.56869 1985 ft 4 kts 232°
2026-05-06 16:02 40.47061 -3.56841 1983 ft 4 kts 232°
2026-05-06 16:02 40.47073 -3.56820 1983 ft 4 kts 262°
2026-05-06 16:02 40.47066 -3.56792 1986 ft 4 kts 316°
2026-05-06 16:02 40.47048 -3.56770 1985 ft 4 kts 315°
2026-05-06 16:03 40.47038 -3.56758 1987 ft 1 kts 317°
2026-05-06 16:07 40.47039 -3.56758 1985 ft 0 kts 317°
2026-05-06 16:07 40.47040 -3.56760 1985 ft 1 kts 317°
2026-05-06 16:08 40.47055 -3.56777 1984 ft 5 kts 317°
2026-05-06 16:08 40.47086 -3.56816 1986 ft 7 kts 316°
2026-05-06 16:08 40.47120 -3.56860 1987 ft 7 kts 316°
2026-05-06 16:08 40.47164 -3.56906 1983 ft 9 kts 327°
2026-05-06 16:09 40.47224 -3.56929 1985 ft 10 kts 356°
2026-05-06 16:09 40.47292 -3.56911 1984 ft 10 kts 26°
2026-05-06 16:09 40.47342 -3.56860 1985 ft 9 kts 16°
2026-05-06 16:09 40.47395 -3.56883 1987 ft 9 kts 322°
2026-05-06 16:10 40.47452 -3.56941 1983 ft 12 kts 322°
2026-05-06 16:10 40.47525 -3.57016 1984 ft 15 kts 322°
2026-05-06 16:10 40.47613 -3.57105 1984 ft 17 kts 322°
2026-05-06 16:10 40.47712 -3.57208 1985 ft 19 kts 320°
2026-05-06 16:11 40.47821 -3.57318 1985 ft 20 kts 322°
2026-05-06 16:11 40.47935 -3.57432 1983 ft 21 kts 323°
2026-05-06 16:11 40.48053 -3.57552 1983 ft 21 kts 322°
2026-05-06 16:11 40.48169 -3.57670 1985 ft 21 kts 322°
2026-05-06 16:12 40.48281 -3.57785 1986 ft 20 kts 322°
2026-05-06 16:12 40.48391 -3.57892 1986 ft 19 kts 328°
2026-05-06 16:12 40.48503 -3.57984 1985 ft 19 kts 328°
2026-05-06 16:12 40.48616 -3.58056 1986 ft 18 kts 349°
2026-05-06 16:13 40.48739 -3.58059 1984 ft 17 kts 360°
2026-05-06 16:13 40.48823 -3.58057 1986 ft 9 kts 16°
2026-05-06 16:13 40.48856 -3.57991 1984 ft 10 kts 84°
2026-05-06 16:13 40.48859 -3.57891 1983 ft 12 kts 89°
2026-05-06 16:14 40.48860 -3.57772 1983 ft 14 kts 89°
2026-05-06 16:14 40.48859 -3.57635 1983 ft 16 kts 90°
2026-05-06 16:14 40.48859 -3.57484 1983 ft 17 kts 90°
2026-05-06 16:14 40.48860 -3.57319 1983 ft 19 kts 90°
2026-05-06 16:15 40.48860 -3.57209 1983 ft 11 kts 90°
2026-05-06 16:15 40.48860 -3.57201 1983 ft 0 kts 90°
2026-05-06 16:16 40.48860 -3.57196 1983 ft 2 kts 89°
2026-05-06 16:16 40.48860 -3.57159 1983 ft 6 kts 89°
2026-05-06 16:16 40.48861 -3.57090 1983 ft 9 kts 90°
2026-05-06 16:17 40.48861 -3.56994 1983 ft 12 kts 90°
2026-05-06 16:17 40.48862 -3.56872 1983 ft 14 kts 89°
2026-05-06 16:17 40.48863 -3.56746 1983 ft 14 kts 89°
2026-05-06 16:17 40.48863 -3.56623 1983 ft 13 kts 91°
2026-05-06 16:18 40.48863 -3.56501 1983 ft 13 kts 90°
2026-05-06 16:18 40.48863 -3.56383 1983 ft 13 kts 90°
2026-05-06 16:18 40.48866 -3.56289 1983 ft 9 kts 75°
2026-05-06 16:18 40.48914 -3.56250 1987 ft 10 kts
2026-05-06 16:19 40.48992 -3.56250 1983 ft 13 kts 359°
2026-05-06 16:19 40.49090 -3.56249 1983 ft 15 kts 360°
2026-05-06 16:19 40.49203 -3.56250 1983 ft 17 kts 360°
2026-05-06 16:19 40.49328 -3.56251 1987 ft 18 kts 359°
2026-05-06 16:20 40.49450 -3.56252 1983 ft 17 kts 359°
2026-05-06 16:20 40.49568 -3.56253 1983 ft 17 kts
2026-05-06 16:20 40.49683 -3.56253 1987 ft 16 kts 359°
2026-05-06 16:20 40.49795 -3.56254 1986 ft 16 kts 360°
2026-05-06 16:21 40.49887 -3.56254 1983 ft 9 kts 360°
2026-05-06 16:21 40.49936 -3.56218 1983 ft 8 kts 68°
2026-05-06 16:21 40.49941 -3.56144 1983 ft 8 kts 91°
2026-05-06 16:21 40.49943 -3.56073 1983 ft 8 kts 82°
2026-05-06 16:22 40.49964 -3.56001 1985 ft 10 kts 57°
2026-05-06 16:22 40.50025 -3.55936 1987 ft 13 kts 22°
2026-05-06 16:22 40.50124 -3.55921 1983 ft 16 kts 359°
2026-05-06 16:22 40.50363 -3.55924 1983 ft 62 kts 360°
2026-05-06 16:23 40.50992 -3.55928 1985 ft 120 kts 360°
2026-05-06 16:23 40.52027 -3.55934 1983 ft 175 kts
2026-05-06 16:23 40.53317 -3.55933 2336 ft 185 kts 360°
2026-05-06 16:23 40.54622 -3.55917 2872 ft 188 kts
2026-05-06 16:24 40.55854 -3.55417 3476 ft 186 kts 23°
2026-05-06 16:24 40.57112 -3.54792 3838 ft 204 kts 19°
2026-05-06 16:24 40.58518 -3.54106 4093 ft 228 kts 28°
2026-05-06 16:24 40.59802 -3.52696 4269 ft 256 kts 53°
2026-05-06 16:25 40.60809 -3.50683 4823 ft 268 kts 60°
2026-05-06 16:25 40.61735 -3.48524 5629 ft 272 kts 62°
2026-05-06 16:25 40.62648 -3.46332 6488 ft 275 kts 62°
2026-05-06 16:25 40.63569 -3.44107 7394 ft 278 kts 62°
2026-05-06 16:26 40.64497 -3.41867 8272 ft 280 kts 61°
2026-05-06 16:26 40.65435 -3.39603 9132 ft 283 kts 61°
2026-05-06 16:26 40.66383 -3.37314 9979 ft 286 kts 61°
2026-05-06 16:26 40.67360 -3.34955 10459 ft 303 kts 61°
2026-05-06 16:27 40.68407 -3.32423 10753 ft 325 kts 62°
2026-05-06 16:27 40.69521 -3.29729 11117 ft 343 kts 62°
2026-05-06 16:27 40.70677 -3.26931 11734 ft 351 kts 62°
2026-05-06 16:27 40.71855 -3.24077 12465 ft 357 kts 62°
2026-05-06 16:28 40.73047 -3.21187 13222 ft 362 kts 62°
2026-05-06 16:28 40.74254 -3.18255 13967 ft 366 kts 62°
2026-05-06 16:28 40.75478 -3.15279 14607 ft 372 kts 62°
2026-05-06 16:28 40.76715 -3.12271 15269 ft 376 kts 62°
2026-05-06 16:29 40.77974 -3.09205 15916 ft 381 kts 62°
2026-05-06 16:29 40.79241 -3.06117 16558 ft 386 kts 61°
2026-05-06 16:29 40.80527 -3.02978 17171 ft 392 kts 61°
2026-05-06 16:29 40.81833 -2.99788 17777 ft 397 kts 61°
2026-05-06 16:30 40.83149 -2.96570 18358 ft 402 kts 61°
2026-05-06 16:30 40.84033 -2.94407 18688 ft 405 kts 61°
2026-05-06 16:30 40.85835 -2.89994 19362 ft 411 kts 61°
2026-05-06 16:30 40.87194 -2.86660 19864 ft 415 kts 60°
2026-05-06 16:31 40.88572 -2.83275 20437 ft 418 kts 60°
2026-05-06 16:31 40.89935 -2.79923 20953 ft 422 kts 60°
2026-05-06 16:31 40.91344 -2.76453 21452 ft 426 kts 60°
2026-05-06 16:31 40.92756 -2.72975 21938 ft 431 kts 60°
2026-05-06 16:32 40.94177 -2.69468 22405 ft 435 kts 60°
2026-05-06 16:32 40.95613 -2.65920 22863 ft 440 kts 60°
2026-05-06 16:32 40.97058 -2.62324 23261 ft 445 kts 62°
2026-05-06 16:32 40.98271 -2.58531 23670 ft 450 kts 70°
2026-05-06 16:33 40.99214 -2.54578 24052 ft 453 kts 73°
2026-05-06 16:33 41.00024 -2.50525 24440 ft 456 kts 75°
2026-05-06 16:33 41.00768 -2.46439 24813 ft 459 kts 76°
2026-05-06 16:34 41.03087 -2.38568 25535 ft 461 kts 56°
2026-05-06 16:34 41.05006 -2.35178 25871 ft 460 kts 44°
2026-05-06 16:34 41.07311 -2.32238 26234 ft 460 kts 39°
2026-05-06 16:34 41.09741 -2.29488 26567 ft 461 kts 36°
2026-05-06 16:35 41.12253 -2.26817 26901 ft 464 kts 35°
2026-05-06 16:35 41.14802 -2.24175 27242 ft 466 kts 34°
2026-05-06 16:35 41.17368 -2.21523 27568 ft 468 kts 34°
2026-05-06 16:35 41.19938 -2.18849 27871 ft 471 kts 35°
2026-05-06 16:36 41.22510 -2.16146 28178 ft 473 kts 35°
2026-05-06 16:36 41.25084 -2.13420 28471 ft 475 kts 35°
2026-05-06 16:36 41.27635 -2.10701 28800 ft 476 kts 36°
2026-05-06 16:36 41.30214 -2.07941 29228 ft 475 kts 36°
2026-05-06 16:37 41.32784 -2.05185 29647 ft 474 kts 36°
2026-05-06 16:37 41.35350 -2.02431 30113 ft 472 kts 36°
2026-05-06 16:37 41.37891 -1.99700 30525 ft 469 kts 36°
2026-05-06 16:37 41.40436 -1.96964 30802 ft 469 kts 36°
2026-05-06 16:38 41.42974 -1.94235 31073 ft 470 kts 36°
2026-05-06 16:38 41.45521 -1.91495 31366 ft 470 kts 36°
2026-05-06 16:38 41.48067 -1.88753 31560 ft 472 kts 36°
2026-05-06 16:38 41.50626 -1.85995 31773 ft 473 kts 36°
2026-05-06 16:39 41.53183 -1.83235 32062 ft 472 kts 36°
2026-05-06 16:39 41.55731 -1.80482 32378 ft 471 kts 36°
2026-05-06 16:39 41.58274 -1.77729 32680 ft 470 kts 36°
2026-05-06 16:39 41.60813 -1.74979 32941 ft 470 kts 36°
2026-05-06 16:40 41.63352 -1.72227 33180 ft 470 kts 36°
2026-05-06 16:40 41.65888 -1.69475 33415 ft 470 kts 36°
2026-05-06 16:40 41.68419 -1.66725 33660 ft 469 kts 36°
2026-05-06 16:40 41.70956 -1.63966 33884 ft 469 kts 36°
2026-05-06 16:41 41.73493 -1.61205 34069 ft 469 kts 36°
2026-05-06 16:41 41.76022 -1.58449 34242 ft 469 kts 36°
2026-05-06 16:41 41.78552 -1.55688 34488 ft 468 kts 36°
2026-05-06 16:41 41.81063 -1.52946 34704 ft 466 kts 36°
2026-05-06 16:42 41.83585 -1.50188 34792 ft 468 kts 36°
2026-05-06 16:42 41.88650 -1.44645 35041 ft 470 kts 36°
2026-05-06 16:42 41.91144 -1.41910 35182 ft 470 kts 36°
2026-05-06 16:43 41.93705 -1.39098 35327 ft 470 kts 36°
2026-05-06 16:43 41.96204 -1.36352 35462 ft 470 kts 36°
2026-05-06 16:43 41.98731 -1.33571 35613 ft 470 kts 36°
2026-05-06 16:43 42.01289 -1.30753 35789 ft 468 kts 36°
2026-05-06 16:44 42.03774 -1.28013 35921 ft 469 kts 36°
2026-05-06 16:44 42.08835 -1.22427 35949 ft 471 kts 36°
2026-05-06 16:45 42.13888 -1.16835 35947 ft 470 kts 36°
2026-05-06 16:45 42.18937 -1.11238 35949 ft 471 kts 36°
2026-05-06 16:46 42.24010 -1.05601 35941 ft 472 kts 36°
2026-05-06 16:46 42.29068 -0.99969 35941 ft 471 kts 36°
2026-05-06 16:47 42.34127 -0.94324 35941 ft 471 kts 36°
2026-05-06 16:47 42.39171 -0.88683 35933 ft 471 kts 36°
2026-05-06 16:48 42.43911 -0.82531 35932 ft 474 kts 47°
2026-05-06 16:48 42.48059 -0.75579 35924 ft 476 kts 50°
2026-05-06 16:49 42.52101 -0.68443 35928 ft 478 kts 50°
2026-05-06 16:49 42.56131 -0.61270 35939 ft 478 kts 50°
2026-05-06 16:50 42.60166 -0.54102 35938 ft 478 kts 50°
2026-05-06 16:50 42.64204 -0.46939 35952 ft 476 kts 50°
2026-05-06 16:51 42.68221 -0.39802 35950 ft 476 kts 50°
2026-05-06 16:51 42.72216 -0.32688 35965 ft 475 kts 50°
2026-05-06 16:52 42.76246 -0.25493 35956 ft 475 kts 51°
2026-05-06 16:52 42.80240 -0.18386 35971 ft 475 kts 49°
2026-05-06 16:53 42.84422 -0.11353 35976 ft 475 kts 48°
2026-05-06 16:53 42.88630 -0.04419 35981 ft 474 kts 48°
2026-05-06 16:54 42.92798 0.02485 35982 ft 475 kts 48°
2026-05-06 16:54 42.96989 0.09477 35984 ft 475 kts 48°
2026-05-06 16:55 43.01164 0.16475 35980 ft 475 kts 49°
2026-05-06 16:55 43.05329 0.23473 35988 ft 473 kts 49°
2026-05-06 16:56 43.09466 0.30442 35993 ft 471 kts 49°
2026-05-06 16:56 43.13595 0.37410 35984 ft 471 kts 49°
2026-05-06 16:57 43.17728 0.44401 35985 ft 473 kts 49°
2026-05-06 16:57 43.21871 0.51425 35976 ft 474 kts 49°
2026-05-06 16:58 43.25313 0.57277 35976 ft 473 kts 49°
2026-05-06 16:58 43.29430 0.64291 35968 ft 471 kts 49°
2026-05-06 16:59 43.33562 0.71346 35966 ft 471 kts 49°
2026-05-06 16:59 43.37639 0.78322 35954 ft 471 kts 49°
2026-05-06 17:00 43.41749 0.85373 35957 ft 474 kts 49°
2026-05-06 17:00 43.45857 0.92438 35948 ft 471 kts 49°
2026-05-06 17:01 43.49940 0.99478 35956 ft 470 kts 49°
2026-05-06 17:01 43.54013 1.06515 35949 ft 470 kts 49°
2026-05-06 17:02 43.58082 1.13564 35940 ft 469 kts 49°
2026-05-06 17:02 43.62152 1.20629 35965 ft 472 kts 50°
2026-05-06 17:03 43.66228 1.27725 35965 ft 471 kts 50°
2026-05-06 17:03 43.70237 1.34876 35963 ft 470 kts 51°
2026-05-06 17:04 43.74119 1.42150 35962 ft 470 kts 52°
2026-05-06 17:04 43.77986 1.49467 35955 ft 470 kts 52°
2026-05-06 17:05 43.81856 1.56774 35950 ft 472 kts 52°
2026-05-06 17:05 43.85745 1.64109 35941 ft 472 kts 52°
2026-05-06 17:06 43.89630 1.71449 35932 ft 472 kts 52°
2026-05-06 17:06 43.93505 1.78788 35930 ft 472 kts 52°
2026-05-06 17:07 43.97338 1.86179 35936 ft 472 kts 53°
2026-05-06 17:07 44.01054 1.93631 35930 ft 473 kts 54°
2026-05-06 17:08 44.04779 2.01165 35939 ft 473 kts 54°
2026-05-06 17:08 44.08522 2.08730 35936 ft 472 kts 54°
2026-05-06 17:09 44.12223 2.16210 35940 ft 472 kts 54°
2026-05-06 17:09 44.15945 2.23745 35936 ft 472 kts 54°
2026-05-06 17:10 44.19682 2.31329 35939 ft 472 kts 54°
2026-05-06 17:10 44.23378 2.38852 35949 ft 473 kts 54°
2026-05-06 17:11 44.27091 2.46430 35950 ft 473 kts 54°
2026-05-06 17:11 44.30795 2.54008 35933 ft 473 kts 54°
2026-05-06 17:12 44.34495 2.61598 35937 ft 473 kts 54°
2026-05-06 17:12 44.38196 2.69210 35940 ft 473 kts 55°
2026-05-06 17:13 44.41891 2.76829 35935 ft 474 kts 55°
2026-05-06 17:13 44.45583 2.84464 35937 ft 473 kts 55°
2026-05-06 17:14 44.49266 2.92101 35927 ft 473 kts 55°
2026-05-06 17:14 44.52938 2.99733 35926 ft 473 kts 55°
2026-05-06 17:15 44.56614 3.07393 35935 ft 474 kts 56°
2026-05-06 17:15 44.60292 3.15080 35922 ft 475 kts 56°
2026-05-06 17:16 44.63706 3.22996 35921 ft 474 kts 60°
2026-05-06 17:16 44.66900 3.31098 35918 ft 474 kts 61°
2026-05-06 17:17 44.70085 3.39221 35914 ft 474 kts 60°
2026-05-06 17:17 44.73291 3.47315 35910 ft 474 kts 60°
2026-05-06 17:18 44.76512 3.55415 35912 ft 474 kts 60°
2026-05-06 17:18 44.79732 3.63525 35898 ft 474 kts 60°
2026-05-06 17:19 44.82947 3.71649 35905 ft 474 kts 60°
2026-05-06 17:19 44.86146 3.79758 35903 ft 474 kts 60°
2026-05-06 17:20 44.89349 3.87903 35896 ft 476 kts 61°
2026-05-06 17:20 44.92545 3.96054 35900 ft 477 kts 61°
2026-05-06 17:21 44.95746 4.04243 35897 ft 476 kts 61°
2026-05-06 17:21 44.98937 4.12431 35901 ft 476 kts 61°
2026-05-06 17:22 45.02117 4.20613 35907 ft 475 kts 61°
2026-05-06 17:22 45.05303 4.28834 35897 ft 477 kts 61°
2026-05-06 17:23 45.08485 4.37070 35904 ft 477 kts 61°
2026-05-06 17:23 45.11662 4.45318 35900 ft 477 kts 61°
2026-05-06 17:24 45.14851 4.53622 35895 ft 476 kts 61°
2026-05-06 17:24 45.18006 4.61862 35884 ft 476 kts 62°
2026-05-06 17:25 45.21139 4.70067 35906 ft 477 kts 62°
2026-05-06 17:25 45.24289 4.78346 35906 ft 477 kts 62°
2026-05-06 17:26 45.27454 4.86689 35893 ft 477 kts 62°
2026-05-06 17:26 45.30573 4.94931 35903 ft 476 kts 62°
2026-05-06 17:27 45.33717 5.03267 35895 ft 475 kts 62°
2026-05-06 17:27 45.36834 5.11557 35906 ft 477 kts 62°
2026-05-06 17:28 45.39935 5.19829 35912 ft 477 kts 62°
2026-05-06 17:28 45.43051 5.28167 35911 ft 477 kts 62°
2026-05-06 17:29 45.46160 5.36511 35919 ft 477 kts 63°
2026-05-06 17:29 45.49724 5.44438 35911 ft 475 kts 47°
2026-05-06 17:30 45.54427 5.51045 35918 ft 477 kts 42°
2026-05-06 17:30 45.59369 5.57373 35912 ft 478 kts 41°
2026-05-06 17:31 45.64354 5.63666 35912 ft 478 kts 41°
2026-05-06 17:31 45.69309 5.69977 35913 ft 477 kts 41°
2026-05-06 17:32 45.74256 5.76326 35908 ft 477 kts 41°
2026-05-06 17:32 45.79198 5.82679 35913 ft 477 kts 41°
2026-05-06 17:33 45.84130 5.89030 35910 ft 477 kts 41°
2026-05-06 17:33 45.89059 5.95391 35907 ft 478 kts 41°
2026-05-06 17:34 45.94015 6.01805 35913 ft 480 kts 41°
2026-05-06 17:34 45.98889 6.08128 35912 ft 480 kts 42°
2026-05-06 17:35 46.03833 6.14559 35912 ft 478 kts 42°
2026-05-06 17:35 46.08760 6.20993 35914 ft 477 kts 43°
2026-05-06 17:36 46.15903 6.30989 35911 ft 477 kts 45°
2026-05-06 17:36 46.20635 6.37796 35911 ft 477 kts 45°
2026-05-06 17:37 46.25321 6.44514 35923 ft 479 kts 45°
2026-05-06 17:37 46.30072 6.51316 35923 ft 481 kts 45°
2026-05-06 17:38 46.34830 6.58137 35917 ft 481 kts 45°
2026-05-06 17:38 46.39570 6.64949 35916 ft 481 kts 45°
2026-05-06 17:39 46.44317 6.71790 35919 ft 480 kts 45°
2026-05-06 17:39 46.49042 6.78619 35912 ft 480 kts 45°
2026-05-06 17:40 46.53770 6.85469 35912 ft 480 kts 45°
2026-05-06 17:40 46.58192 6.92737 35914 ft 483 kts 51°
2026-05-06 17:41 46.61744 6.99038 35917 ft 485 kts 52°
2026-05-06 17:41 46.65978 7.06688 35905 ft 485 kts 52°
2026-05-06 17:42 46.70193 7.14338 35897 ft 485 kts 52°
2026-05-06 17:42 46.74413 7.22001 35927 ft 485 kts 52°
2026-05-06 17:43 46.78625 7.29660 35894 ft 483 kts 52°
2026-05-06 17:43 46.82820 7.37307 35889 ft 483 kts 52°
2026-05-06 17:44 46.87010 7.44972 35883 ft 486 kts 52°
2026-05-06 17:44 46.91244 7.52751 35907 ft 487 kts 52°
2026-05-06 17:45 46.95452 7.60505 35903 ft 486 kts 52°
2026-05-06 17:45 46.99650 7.68261 35903 ft 485 kts 53°
2026-05-06 17:46 47.03830 7.76006 35904 ft 485 kts 53°
2026-05-06 17:46 47.08008 7.83768 35900 ft 485 kts 53°
2026-05-06 17:47 47.12180 7.91542 35903 ft 485 kts 53°
2026-05-06 17:47 47.15940 7.99697 35913 ft 481 kts 59°
2026-05-06 17:48 47.19523 8.08007 35908 ft 481 kts 59°
2026-05-06 17:48 47.23061 8.16356 35909 ft 481 kts 60°
2026-05-06 17:49 47.26589 8.24705 35911 ft 481 kts 60°
2026-05-06 17:49 47.30518 8.32658 35893 ft 483 kts 45°
2026-05-06 17:50 47.35816 8.38801 36084 ft 485 kts 34°
2026-05-06 17:50 47.38599 8.41576 36265 ft 484 kts 33°
2026-05-06 17:50 47.41416 8.44290 36454 ft 483 kts 32°
2026-05-06 17:51 47.44239 8.46979 36607 ft 482 kts 32°
2026-05-06 17:51 47.47050 8.49657 36743 ft 482 kts 32°
2026-05-06 17:51 47.49875 8.52363 36885 ft 482 kts 32°
2026-05-06 17:51 47.52685 8.55071 36907 ft 483 kts 32°
2026-05-06 17:52 47.58299 8.60525 36907 ft 482 kts 33°
2026-05-06 17:52 47.63865 8.65965 36901 ft 482 kts 33°
2026-05-06 17:53 47.69495 8.71482 36898 ft 482 kts 33°
2026-05-06 17:53 47.75087 8.76975 36886 ft 481 kts 33°
2026-05-06 17:54 47.80658 8.82460 36874 ft 481 kts 33°
2026-05-06 17:54 47.86231 8.87962 36875 ft 481 kts 33°
2026-05-06 17:55 47.91802 8.93475 36862 ft 480 kts 33°
2026-05-06 17:55 47.97367 8.98997 36865 ft 481 kts 33°
2026-05-06 17:56 48.02940 9.04542 36867 ft 481 kts 33°
2026-05-06 17:56 48.08509 9.10098 36878 ft 481 kts 33°
2026-05-06 17:57 48.14110 9.15558 36860 ft 479 kts 27°
2026-05-06 17:57 48.17142 9.17572 36863 ft 477 kts 16°
2026-05-06 17:57 48.20350 9.18741 36858 ft 474 kts
2026-05-06 17:58 48.26879 9.20147 36856 ft 475 kts
2026-05-06 17:58 48.33447 9.21201 36857 ft 475 kts
2026-05-06 17:59 48.40039 9.22240 36854 ft 476 kts
2026-05-06 17:59 48.46619 9.23326 36852 ft 476 kts
2026-05-06 18:00 48.53208 9.24444 36835 ft 476 kts
2026-05-06 18:00 48.59789 9.25569 36830 ft 476 kts
2026-05-06 18:01 48.66314 9.27399 36828 ft 477 kts 10°
2026-05-06 18:01 48.72809 9.29508 36829 ft 477 kts 11°
2026-05-06 18:02 48.79295 9.31681 36829 ft 478 kts 11°
2026-05-06 18:02 48.85827 9.33873 36831 ft 478 kts 11°
2026-05-06 18:03 48.92325 9.36048 36829 ft 478 kts 11°
2026-05-06 18:03 48.98774 9.38207 36828 ft 478 kts 11°
2026-05-06 18:04 49.05281 9.40391 36829 ft 478 kts 11°
2026-05-06 18:04 49.11813 9.42589 36825 ft 478 kts 11°
2026-05-06 18:05 49.18316 9.44784 36826 ft 479 kts 11°
2026-05-06 18:05 49.24821 9.46986 36820 ft 479 kts 11°
2026-05-06 18:06 49.31329 9.49194 36806 ft 479 kts 11°
2026-05-06 18:06 49.37839 9.51410 36808 ft 479 kts 11°
2026-05-06 18:07 49.44334 9.53627 36806 ft 478 kts 11°
2026-05-06 18:07 49.50817 9.55845 36805 ft 478 kts 11°
2026-05-06 18:08 49.57314 9.58073 36807 ft 478 kts 11°
2026-05-06 18:08 49.63795 9.60302 36800 ft 476 kts 11°
2026-05-06 18:09 49.70261 9.62533 36799 ft 476 kts 11°
2026-05-06 18:09 49.76719 9.64767 36795 ft 476 kts 11°
2026-05-06 18:10 49.83178 9.67007 36799 ft 476 kts 11°
2026-05-06 18:10 49.89614 9.69245 36787 ft 476 kts 11°
2026-05-06 18:11 49.95024 9.71132 36793 ft 476 kts 11°
2026-05-06 18:11 50.02435 9.74567 36794 ft 477 kts 22°
2026-05-06 18:12 50.08473 9.78926 36788 ft 479 kts 26°
2026-05-06 18:12 50.14430 9.83585 36784 ft 479 kts 26°
2026-05-06 18:13 50.20378 9.88294 36779 ft 479 kts 26°
2026-05-06 18:13 50.26334 9.92988 36779 ft 480 kts 26°
2026-05-06 18:14 50.32300 9.97679 36780 ft 480 kts 26°
2026-05-06 18:14 50.38260 10.02371 36780 ft 480 kts 26°
2026-05-06 18:15 50.44235 10.07090 36791 ft 480 kts 26°
2026-05-06 18:15 50.50197 10.11813 36785 ft 481 kts 26°
2026-05-06 18:16 50.56165 10.16555 36770 ft 481 kts 27°
2026-05-06 18:16 50.61648 10.22531 36775 ft 480 kts 42°
2026-05-06 18:17 50.65716 10.28460 36769 ft 480 kts 45°
2026-05-06 18:17 50.71260 10.37148 36784 ft 482 kts 46°
2026-05-06 18:18 50.75190 10.43387 36779 ft 483 kts 46°
2026-05-06 18:18 50.79940 10.50898 36776 ft 483 kts 45°
2026-05-06 18:19 50.84697 10.58404 36775 ft 483 kts 45°
2026-05-06 18:19 50.89445 10.65906 36774 ft 482 kts 45°
2026-05-06 18:20 50.94180 10.73413 36779 ft 481 kts 45°
2026-05-06 18:20 50.98910 10.80935 36775 ft 481 kts 45°
2026-05-06 18:21 51.03631 10.88467 36776 ft 481 kts 46°
2026-05-06 18:21 51.08352 10.96024 36759 ft 481 kts 45°
2026-05-06 18:22 51.13074 11.03604 36772 ft 482 kts 45°
2026-05-06 18:22 51.17785 11.11191 36780 ft 482 kts 46°
2026-05-06 18:23 51.22499 11.18805 36779 ft 482 kts 46°
2026-05-06 18:23 51.27202 11.26425 36800 ft 482 kts 46°
2026-05-06 18:24 51.31905 11.34068 36783 ft 482 kts 46°
2026-05-06 18:24 51.36589 11.41707 36779 ft 482 kts 46°
2026-05-06 18:25 51.41283 11.49383 36787 ft 482 kts 46°
2026-05-06 18:25 51.45963 11.57061 36791 ft 482 kts 46°
2026-05-06 18:26 51.50615 11.64718 36788 ft 482 kts 46°
2026-05-06 18:26 51.55329 11.72499 36790 ft 483 kts 46°
2026-05-06 18:27 51.60000 11.80234 36790 ft 483 kts 46°
2026-05-06 18:27 51.64672 11.87996 36785 ft 483 kts 46°
2026-05-06 18:28 51.69344 11.95781 36793 ft 483 kts 46°
2026-05-06 18:28 51.73981 12.03534 36790 ft 484 kts 46°
2026-05-06 18:29 51.78647 12.11360 36792 ft 484 kts 46°
2026-05-06 18:29 51.83336 12.19255 36796 ft 484 kts 47°
2026-05-06 18:30 51.87761 12.27340 36778 ft 483 kts 51°
2026-05-06 18:30 51.92077 12.35707 36798 ft 485 kts 51°
2026-05-06 18:31 51.96415 12.44146 36792 ft 485 kts 51°
2026-05-06 18:31 52.00724 12.52482 36794 ft 485 kts 51°
2026-05-06 18:32 52.05091 12.60919 36796 ft 485 kts 51°
2026-05-06 18:32 52.09432 12.69329 36805 ft 485 kts 50°
2026-05-06 18:33 52.13760 12.77742 36796 ft 485 kts 50°
2026-05-06 18:33 52.18053 12.86118 36800 ft 485 kts 50°
2026-05-06 18:34 52.22389 12.94608 36787 ft 485 kts 51°
2026-05-06 18:34 52.26711 13.03099 36806 ft 487 kts 51°
2026-05-06 18:35 52.31028 13.11609 36809 ft 486 kts 51°
2026-05-06 18:35 52.35334 13.20123 36827 ft 485 kts 51°
2026-05-06 18:36 52.39631 13.28650 36827 ft 485 kts 51°
2026-05-06 18:36 52.43895 13.37140 36828 ft 485 kts 51°
2026-05-06 18:37 52.48201 13.45743 36831 ft 485 kts 51°
2026-05-06 18:37 52.52472 13.54306 36835 ft 484 kts 51°
2026-05-06 18:38 52.56732 13.62874 36829 ft 485 kts 51°
2026-05-06 18:38 52.60970 13.71428 36838 ft 486 kts 51°
2026-05-06 18:39 52.65240 13.80074 36841 ft 486 kts 51°
2026-05-06 18:40 52.71627 13.93063 36842 ft 486 kts 51°
2026-05-06 18:40 52.75880 14.01751 36843 ft 486 kts 51°
2026-05-06 18:41 52.80121 14.10443 36843 ft 486 kts 51°